Location: Neuvy Saint Sepulchre
(46.5953°N, 1.8122°E)
Time: 10:21:26
(UTC+02:00)

ISS - Pass Details

Date: 19 March 2024
Orbit: 413 x 419 km, 51.6° (Epoch: 13 April)

Event Time Altitude Azimuth Distance (km) Brightness Sun altitude
Rises 22:09:40 0° 290° (WNW) 2,370 1.1 -30.4°
Reaches altitude 10° 22:11:52 10° 299° (WNW) 1,507 -0.1 -30.7°
Enters shadow 22:12:23 13° 303° (WNW) 1,315 -0.4 -30.8°
